#timestamp,LO_Frequency,Hit,StdDev 
1511827215.1,286046992.6,N
1511827235.8,286046990.4,N
1511827255.7,286046991.8,N
1511827275.5,286046996.4,N
1511827295.3,286046995.2,N
1511827315.2,286046995.6,N
1511827335.9,286046997.4,N
1511827355.7,286046997.7,N
1511827375.6,286046994.6,N
1511827395.4,286046992.9,N
1511827415.2,286046992.5,N
1511827435.0,286046989.2,N
1511827435.9,286046989.2,N
1511827455.8,286046983.9,Y
1511827475.6,286046991.9,P
1511827495.4,286046993.4,P
1511827515.3,286046994.2,P
1511827535.1,286046994.1,Y
1511827555.9,286046996.7,P
1511827575.7,286046992.8,P
1511827595.5,286046997.3,N
1511827615.4,286046994.1,Y
1511827635.2,286047002.1,P
1511827655.0,286047003.9,N
1511827655.9,286047003.9,N
1511827675.7,286047002.0,N
1511827695.6,286047002.4,N
1511827715.4,286046999.6,N
1511827735.2,286046996.0,N
1511827755.1,286046993.8,N
1511827756.0,286046993.8,N
1511827775.8,286046994.8,N
1511827795.6,286046993.0,N
1511827815.5,286046989.8,N
1511827835.3,286046991.0,N
1511827855.1,286046988.5,N
1511827875.9,286046993.2,N
1511827895.7,286046989.3,N
1511827915.5,286046988.5,N
1511827935.4,286046993.5,N
1511827955.2,286046994.9,N
1511827975.0,286046995.5,N
1511827975.9,286046995.5,N
1511827995.7,286046995.9,N
1511828015.6,286046993.8,N
1511828035.4,286046995.3,N
1511828055.2,286046995.8,N
1511828075.1,286046994.1,N
1511828076.0,286046994.1,N
1511828095.8,286046995.9,N
1511828115.6,286046996.1,N
1511828135.5,286046995.2,N
1511828155.3,286046990.4,N
1511828175.1,286046987.1,Y
1511828195.9,286046991.8,P
1511828215.7,286046996.2,N
1511828235.5,286046996.5,N
1511828255.4,286047003.5,N
1511828275.2,286047007.3,N
1511828295.0,286047001.8,N
1511828295.9,286047001.8,N
1511828315.8,286046999.7,N
1511828335.6,286047001.5,N
1511828355.4,286047003.3,N
1511828375.2,286047004.2,N
1511828395.1,286047000.1,N
1511828396.0,286047000.1,N
1511828415.8,286047002.0,N
1511828435.6,286047000.6,N
1511828455.5,286047005.1,N
1511828475.3,286047005.1,N
1511828495.1,286046997.8,N
1511828515.9,286046995.6,N
1511828535.7,286046998.6,N
1511828555.5,286046998.3,N
1511828575.4,286046999.6,N
1511828595.2,286046995.6,N
1511828615.0,286046993.0,N
1511828615.9,286046993.0,N
1511828635.8,286046992.4,N
1511828655.6,286046992.9,N
1511828675.4,286046992.3,N
1511828695.2,286046993.9,N
1511828715.1,286046994.6,N
1511828716.0,286046994.6,N
1511828735.8,286046994.2,N
1511828755.6,286046996.3,N
1511828775.5,286046991.9,N
1511828795.3,286046994.0,N
1511828815.1,286046997.2,N
1511828835.9,286047001.1,N
1511828855.7,286047000.6,N
1511828875.5,286047004.2,N
1511828895.4,286047005.0,N
1511828915.2,286047005.6,N
1511828935.0,286047004.7,N
1511828935.9,286047004.7,N
1511828955.8,286047006.4,N
1511828975.6,286047007.3,N
1511828995.4,286047007.6,N
1511829015.3,286047004.8,N
1511829035.1,286047004.4,N
1511829036.0,286047004.4,N
1511829055.8,286047004.2,N
1511829075.7,286047001.9,N
1511829095.5,286047002.7,N
1511829115.3,286047000.2,N
1511829135.1,286046999.0,N
1511829155.9,286046996.5,N
1511829175.7,286046995.1,N
1511829195.5,286046994.6,N
1511829215.4,286046992.0,N
1511829235.2,286046992.1,N
1511829255.0,286046993.2,N
1511829255.9,286046993.2,N
1511829275.8,286046994.4,N
1511829295.6,286046992.8,N
1511829315.4,286046993.7,N
1511829335.3,286046996.1,N
1511829355.1,286046994.8,N
1511829356.0,286046994.8,N
1511829375.8,286046994.0,N
1511829395.7,286046995.8,N
1511829415.5,286046998.6,N
1511829435.3,286047003.3,N
1511829455.1,286047003.7,N
1511829475.9,286047005.9,N
1511829495.7,286047005.2,N
1511829515.5,286047008.7,N
1511829535.4,286047011.3,N
1511829555.2,286047009.8,N
1511829575.0,286047009.8,N
1511829575.9,286047009.8,N
1511829595.8,286047013.3,N
1511829615.6,286047013.0,N
1511829635.4,286047016.9,N
1511829655.3,286047019.9,N
1511829675.1,286047017.8,N
1511829676.0,286047017.8,N
1511829695.8,286047020.4,N
1511829715.7,286047017.3,N
1511829735.5,286047015.4,N
1511829755.3,286047012.4,N
1511829775.1,286047008.3,N
1511829795.9,286047007.1,N
1511829815.7,286047001.6,N
1511829835.5,286047004.2,N
1511829855.4,286047002.8,N
1511829875.2,286047001.5,N
1511829895.0,286047000.7,N
1511829895.9,286047000.7,N
1511829915.8,286046996.8,N
1511829935.6,286046999.2,N
1511829955.4,286046995.3,N
1511829975.3,286046995.6,N
1511829995.1,286046992.4,N
1511829996.0,286046992.4,N
1511830015.8,286046990.7,N
1511830035.7,286046988.0,N
1511830055.5,286046986.4,N
1511830075.3,286046986.4,N
1511830095.2,286046986.1,N
1511830115.9,286046985.8,N
1511830135.7,286046987.8,N
1511830155.5,286046990.0,N
1511830175.4,286046989.1,N
1511830195.2,286046988.8,N
1511830215.0,286046988.7,N
1511830215.9,286046988.7,N
1511830235.8,286046987.1,N
1511830255.6,286046985.3,N
1511830275.4,286046987.2,N
1511830295.3,286046983.8,N
1511830315.1,286046983.7,N
1511830335.8,286046988.5,N
1511830355.7,286046991.6,N
1511830375.5,286046996.3,N
1511830395.3,286046995.5,N
1511830415.2,286046995.7,N
1511830435.9,286046994.2,N
1511830455.7,286046997.4,N
1511830475.5,286046999.5,N
1511830495.4,286046998.6,N
1511830515.2,286047002.4,N
1511830535.0,286047007.6,N
1511830535.9,286047007.6,N
1511830555.8,286047005.1,N
1511830575.6,286047004.6,N
1511830595.4,286047008.7,N
1511830615.3,286047007.7,N
1511830635.1,286047008.0,N
1511830655.8,286047009.7,N
1511830675.7,286047012.6,N
1511830695.5,286047016.4,N
1511830715.3,286047015.9,N
1511830735.2,286047019.5,N
1511830755.9,286047022.0,N
1511830775.7,286047024.2,N
1511830795.6,286047022.9,N
